Birmingham, United Kingdom

8:18 AM BST on July 26, 2017 (GMT +0100)
Birmingham

Weather History for EGBB - March, 2013

Change the Weather History Date:

Thursday, March 21, 2013

  Actual Average Record
Temperature  
Mean Temperature 36 °F -  
Max Temperature 41 °F 52 °F 59 °F (2005)
Min Temperature 32 °F 37 °F 28 °F (2009)
Degree Days  
Heating Degree Days 28    
Moisture  
Dew Point 30 °F    
Average Humidity 79    
Maximum Humidity 100    
Minimum Humidity 61    
Precipitation  
Precipitation 0.00 in 0.07 in - ()
Sea Level Pressure  
Sea Level Pressure 29.97 in    
Wind  
Wind Speed 9 mph ()    
Max Wind Speed 20 mph    
Max Gust Speed 30 mph    
Visibility 5.4 miles    
Events Rain , Snow    
Averages and records for this station are not official NWS values.
T = Trace of Precipitation, MM = Missing Value Source: Averaged Metar Reports

Daily Weather History Graph

Daily Weather History Graph

Search for Another Location

Airport or City:

Trip Planner

Search our weather history database for the weather conditions in past years. The results will help you decide how hot, cold, wet, or windy it might be!

Date:

Astronomy

Mar. 21, 2013 Rise Set
Actual Time 6:06 AM GMT 6:22 PM GMT
Civil Twilight 5:32 AM GMT 6:56 PM GMT
Nautical Twilight 4:52 AM GMT 7:36 PM GMT
Astronomical Twilight 4:10 AM GMT 8:19 PM GMT
Moon 12:00 PM GMT (3/21) 2:58 AM GMT (3/21)
Length of Visible Light 13h 23m
Length of Day
12h 15m
Waxing Gibbous, 67% of the Moon is Illuminated
Mar 21
Waxing Gibbous
Mar 27
Full
Apr 3
Last Quarter
Apr 10
New
Apr 18
First Quarter

Hourly Weather History & Observations

Time (GMT) Temp. Windchill Dew Point Humidity Pressure Visibility Wind Dir Wind Speed Gust Speed Precip Events Conditions
12:20 AM 35.6 °F 31.7 °F 30.2 °F 81% 30.01 in 6.2 mi ENE 4.6 mph - N/A   Mostly Cloudy
12:50 AM 35.6 °F 29.9 °F 30.2 °F 81% 30.01 in 6.2 mi ENE 6.9 mph - N/A   Mostly Cloudy
1:20 AM 33.8 °F 29.6 °F 30.2 °F 87% 30.01 in 6.2 mi SE 4.6 mph - N/A   Mostly Cloudy
1:50 AM 32.0 °F 27.5 °F 30.2 °F 93% 30.01 in 5.6 mi ESE 4.6 mph - N/A   Scattered Clouds
2:20 AM 32.0 °F 27.5 °F 28.4 °F 87% 30.01 in 5.0 mi East 4.6 mph - N/A   Unknown
2:50 AM 32.0 °F 27.5 °F 30.2 °F 93% 30.01 in 5.0 mi East 4.6 mph - N/A   Unknown
3:20 AM 32.0 °F 25.6 °F 30.2 °F 93% 29.98 in 5.0 mi East 6.9 mph - N/A   Unknown
3:50 AM 32.0 °F 26.4 °F 30.2 °F 93% 29.98 in 5.0 mi East 5.8 mph - N/A   Unknown
4:20 AM 32.0 °F 26.4 °F 28.4 °F 87% 29.98 in 5.6 mi East 5.8 mph - N/A   Unknown
4:50 AM 32.0 °F 25.6 °F 28.4 °F 87% 29.98 in 5.0 mi East 6.9 mph - N/A   Unknown
5:20 AM 32.0 °F 25.6 °F 28.4 °F 87% 30.01 in 5.6 mi East 6.9 mph - N/A   Unknown
5:50 AM 32.0 °F 25.6 °F 28.4 °F 87% 30.01 in 5.0 mi East 6.9 mph - N/A   Unknown
6:20 AM 32.0 °F 23.6 °F 30.2 °F 93% 30.01 in 5.6 mi East 10.4 mph - N/A   Partly Cloudy
6:50 AM 32.0 °F 24.2 °F 30.2 °F 93% 30.01 in 5.6 mi East 9.2 mph - N/A   Mostly Cloudy
7:20 AM 33.8 °F 26.4 °F 30.2 °F 87% 30.01 in 5.6 mi East 9.2 mph - N/A   Mostly Cloudy
7:50 AM 33.8 °F 26.4 °F 30.2 °F 87% 30.01 in 6.2 mi ESE 9.2 mph - N/A   Mostly Cloudy
8:20 AM 33.8 °F 25.8 °F 30.2 °F 87% 30.01 in 6.2 mi East 10.4 mph - N/A   Mostly Cloudy
8:50 AM 35.6 °F 28.0 °F 30.2 °F 81% 30.01 in 6.2 mi East 10.4 mph - N/A   Mostly Cloudy
9:20 AM 35.6 °F 27.5 °F 30.2 °F 81% 30.01 in 6.2 mi ESE 11.5 mph - N/A   Mostly Cloudy
9:50 AM 37.4 °F 29.3 °F 28.4 °F 70% 30.01 in 6.2 mi ESE 12.7 mph - N/A   Mostly Cloudy
10:20 AM 37.4 °F 29.3 °F 28.4 °F 70% 30.01 in 6.2 mi East 12.7 mph - N/A   Mostly Cloudy
10:50 AM 39.2 °F 30.2 °F 28.4 °F 65% 29.98 in 6.2 mi ESE 17.3 mph - N/A   Mostly Cloudy
11:20 AM 41.0 °F 32.8 °F 28.4 °F 61% 29.98 in - ESE 16.1 mph - N/A   Clear
11:50 AM 41.0 °F 32.8 °F 28.4 °F 61% 29.98 in 6.2 mi East 16.1 mph - N/A   Partly Cloudy
12:50 PM 41.0 °F 32.8 °F 28.4 °F 61% 29.98 in 6.2 mi East 16.1 mph - N/A   Partly Cloudy
1:20 PM 41.0 °F 33.1 °F 28.4 °F 61% 29.98 in 6.2 mi East 15.0 mph - N/A   Partly Cloudy
1:50 PM 41.0 °F 33.1 °F 28.4 °F 61% 29.95 in 6.2 mi East 15.0 mph - N/A   Partly Cloudy
2:20 PM 41.0 °F 32.5 °F 30.2 °F 65% 29.95 in 6.2 mi East 17.3 mph - N/A   Partly Cloudy
2:50 PM 41.0 °F 32.8 °F 28.4 °F 61% 29.95 in 6.2 mi East 16.1 mph - N/A   Scattered Clouds
3:20 PM 41.0 °F 32.8 °F 30.2 °F 65% 29.95 in 6.2 mi East 16.1 mph - N/A   Scattered Clouds
3:50 PM 41.0 °F 32.8 °F 30.2 °F 65% 29.95 in 6.2 mi East 16.1 mph - N/A   Scattered Clouds
4:20 PM 41.0 °F 32.8 °F 30.2 °F 65% 29.92 in 6.2 mi East 16.1 mph - N/A   Mostly Cloudy
4:50 PM 39.2 °F 29.8 °F 30.2 °F 70% 29.92 in 6.2 mi East 18.4 mph - N/A   Scattered Clouds
5:20 PM 39.2 °F 29.8 °F 30.2 °F 70% 29.92 in 6.2 mi East 18.4 mph - N/A   Scattered Clouds
5:50 PM 39.2 °F 30.5 °F 30.2 °F 70% 29.92 in 6.2 mi East 16.1 mph - N/A   Mostly Cloudy
6:20 PM 39.2 °F 31.2 °F 30.2 °F 70% 29.92 in 6.2 mi East 13.8 mph 26.5 mph N/A   Mostly Cloudy
6:50 PM 39.2 °F 30.5 °F 30.2 °F 70% 29.92 in 6.2 mi East 16.1 mph - N/A   Mostly Cloudy
7:20 PM 37.4 °F 27.8 °F 30.2 °F 75% 29.92 in 6.2 mi ESE 17.3 mph - N/A   Mostly Cloudy
7:50 PM 37.4 °F 27.2 °F 30.2 °F 75% 29.92 in 6.2 mi ESE 19.6 mph - N/A   Mostly Cloudy
8:20 PM 37.4 °F 27.5 °F 30.2 °F 75% 29.92 in 6.2 mi ESE 18.4 mph 29.9 mph N/A   Mostly Cloudy
8:50 PM 37.4 °F 27.5 °F 30.2 °F 75% 29.92 in 6.2 mi East 18.4 mph - N/A Snow Snow Showers
9:20 PM 35.6 °F 26.2 °F 32.0 °F 87% 29.92 in 3.7 mi East 15.0 mph - N/A Snow Snow
9:50 PM 35.6 °F 25.5 °F 32.0 °F 87% 29.92 in 3.1 mi East 17.3 mph - N/A Snow Light Snow
10:20 PM 33.8 °F 23.2 °F 32.0 °F 93% 29.92 in 3.1 mi East 17.3 mph - N/A Snow Light Snow
10:50 PM 33.8 °F 24.3 °F 32.0 °F 93% 29.89 in 1.2 mi East 13.8 mph - N/A Rain Rain
11:20 PM 32.0 °F 21.6 °F 32.0 °F 100% 29.89 in 1.1 mi East 15.0 mph - N/A Rain Rain
11:50 PM 32.0 °F 22.1 °F 32.0 °F 100% 29.89 in 1.2 mi East 13.8 mph - N/A Rain Rain